Hays, KS

7:05 AM CDT on August 19, 2019 (GMT -0500)
Hays Regional

Weather History for KHYS - July, 2019

Change the Weather History Date:

Monday, July 22, 2019

  Actual Average Record
Temperature  
Mean Temperature 72 °F -  
Max Temperature 82 °F 89 °F 105 °F (2005)
Min Temperature 62 °F 65 °F 60 °F (2000)
Cooling Degree Days 8    
Growing Degree Days 22 (Base 50)    
Moisture  
Dew Point 59 °F    
Average Humidity 66    
Maximum Humidity 93    
Minimum Humidity 38    
Precipitation  
Precipitation 0.00 in - - ()
Sea Level Pressure  
Sea Level Pressure 30.22 in    
Wind  
Wind Speed 11 mph (NE)    
Max Wind Speed 16 mph    
Max Gust Speed 23 mph    
Visibility 10 miles    
Events      
Averages and records for this station are not official NWS values.
T = Trace of Precipitation, MM = Missing Value Source: NWS Daily Summary

Daily Weather History Graph

Daily Weather History Graph

Search for Another Location

Airport or City:

Astronomy

Jul. 22, 2019 Rise Set
Actual Time 6:29 AM CDT 8:57 PM CDT
Civil Twilight 5:58 AM CDT 9:27 PM CDT
Nautical Twilight 5:21 AM CDT 10:05 PM CDT
Astronomical Twilight 4:39 AM CDT 10:47 PM CDT
Moon No Moon Rise 11:45 AM CDT (7/22)
Length of Visible Light 15h 28m
Length of Day
14h 27m
Waning Gibbous, 72% of the Moon is Illuminated
Jul 22
Waning Gibbous
Jul 24
Last Quarter
Jul 31
New
Aug 7
First Quarter
Aug 15
Full

Hourly Weather History & Observations

Time (CDT) Temp. Heat Index Dew Point Humidity Pressure Visibility Wind Dir Wind Speed Gust Speed Precip Events Conditions
12:56 AM 68.0 °F - 64.9 °F 90% 30.16 in 10.0 mi NNE 9.2 mph - N/A   Partly Cloudy
1:15 AM 68.0 °F - 64.4 °F 88% 30.20 in 10.0 mi North 8.1 mph - N/A   Mostly Cloudy
1:37 AM 69.8 °F - 66.2 °F 88% 30.22 in 10.0 mi North 8.1 mph - N/A   Overcast
1:56 AM 69.1 °F - 66.0 °F 90% 30.18 in 10.0 mi North 8.1 mph - N/A   Overcast
2:56 AM 66.9 °F - 63.0 °F 87% 30.17 in 10.0 mi NNE 11.5 mph - N/A   Mostly Cloudy
3:56 AM 66.0 °F - 62.1 °F 87% 30.17 in 10.0 mi North 13.8 mph - N/A   Partly Cloudy
4:56 AM 64.0 °F - 62.1 °F 93% 30.17 in 10.0 mi North 12.7 mph - N/A   Scattered Clouds
5:56 AM 64.0 °F - 60.1 °F 87% 30.19 in 10.0 mi NNE 13.8 mph - N/A   Clear
6:56 AM 63.0 °F - 59.0 °F 87% 30.22 in 10.0 mi North 10.4 mph - N/A   Clear
7:56 AM 66.0 °F - 59.0 °F 78% 30.26 in 10.0 mi NNE 11.5 mph - N/A   Clear
8:56 AM 69.1 °F - 60.1 °F 73% 30.26 in 10.0 mi NNE 16.1 mph - N/A   Clear
9:56 AM 73.0 °F - 61.0 °F 66% 30.27 in 10.0 mi NNE 13.8 mph - N/A   Clear
10:56 AM 75.9 °F - 60.1 °F 58% 30.26 in 10.0 mi NE 13.8 mph - N/A   Clear
11:56 AM 77.0 °F - 55.0 °F 47% 30.27 in 10.0 mi NE 11.5 mph - N/A   Clear
12:56 PM 80.1 °F 80.1 °F 55.0 °F 42% 30.25 in 10.0 mi NE 12.7 mph 19.6 mph N/A   Clear
1:56 PM 81.0 °F 80.8 °F 55.9 °F 42% 30.24 in 10.0 mi NNE 12.7 mph 23.0 mph N/A   Scattered Clouds
2:56 PM 82.0 °F 81.6 °F 55.9 °F 41% 30.23 in 10.0 mi NE 12.7 mph - N/A   Partly Cloudy
3:56 PM 82.0 °F 81.4 °F 55.0 °F 39% 30.22 in 10.0 mi NNE 13.8 mph - N/A   Partly Cloudy
4:56 PM 82.0 °F 81.6 °F 55.9 °F 41% 30.21 in 10.0 mi ENE 10.4 mph - N/A   Partly Cloudy
5:56 PM 82.0 °F 81.3 °F 54.0 °F 38% 30.20 in 10.0 mi ENE 12.7 mph 18.4 mph N/A   Partly Cloudy
6:56 PM 80.1 °F 80.1 °F 55.0 °F 42% 30.19 in 10.0 mi ENE 13.8 mph - N/A   Clear
7:56 PM 78.1 °F - 55.9 °F 46% 30.21 in 10.0 mi ENE 11.5 mph - N/A   Clear
8:56 PM 73.0 °F - 55.0 °F 53% 30.23 in 10.0 mi NE 9.2 mph - N/A   Clear
9:56 PM 66.9 °F - 55.9 °F 68% 30.26 in 10.0 mi NE 9.2 mph - N/A   Clear
10:56 PM 64.9 °F - 55.9 °F 73% 30.27 in 10.0 mi NE 9.2 mph - N/A   Clear
11:56 PM 62.1 °F - 55.0 °F 78% 30.29 in 10.0 mi NE 8.1 mph - N/A   Clear